DW4604 Weather Reports


Display with metric or nautical units.
time (UTC)temp
F
wind
direction
speed
MPH
gust
MPH
rain 1hr
in
rain 24hr
in
rain mn
in
humidity
%
barometer
mb
20200220082943 37 268 0.0 3.0 0.01 0.14 0.07 96 1020.9
20200220082444 37 279 0.0 4.0 0.01 0.14 0.07 96 1020.9
20200220081944 36 298 1.0 5.0 0.01 0.14 0.07 96 1020.8
20200220081444 36 304 1.0 5.0 0.02 0.14 0.07 96 1020.8
20200220080944 36 292 1.0 4.0 0.02 0.14 0.07 96 1020.8
20200220080444 36 294 1.0 5.0 0.01 0.13 0.06 96 1020.8
20200220075944 36 296 1.0 5.0 0.01 0.13 0.06 96 1020.8
20200220075444 37 293 0.0 5.0 0.01 0.13 0.06 96 1020.8
20200220074945 37 300 0.0 4.0 0.01 0.13 0.06 96 1020.7
20200220074444 37 272 0.0 1.0 0.01 0.13 0.06 96 1020.7
20200220073944 37 239 0.0 2.0 0.01 0.13 0.06 96 1020.6
20200220073444 37 241 0.0 2.0 0.01 0.13 0.06 96 1020.5
20200220072944 37 278 0.0 2.0 0.01 0.13 0.06 96 1020.5
20200220072444 37 291 0.0 2.0 0.01 0.13 0.06 96 1020.5
20200220071944 36 312 0.0 3.0 0.01 0.13 0.06 96 1020.5
20200220071445 36 305 0.0 4.0 0.00 0.13 0.06 96 1020.4
20200220070944 36 297 0.0 4.0 0.00 0.13 0.06 96 1020.4
20200220070444 36 320 0.0 2.0 0.00 0.13 0.06 96 1020.3
20200220065945 36 306 0.0 2.0 0.00 0.13 0.06 96 1020.4
20200220065444 36 260 0.0 1.0 0.00 0.13 0.06 96 1020.2
20200220064944 36 304 0.0 1.0 0.00 0.13 0.06 96 1020.2
20200220064444 36 308 0.0 1.0 0.00 0.13 0.06 96 1020.2
20200220063945 36 323 0.0 1.0 0.00 0.13 0.06 96 1020.1
20200220063444 36 320 0.0 1.0 0.00 0.13 0.06 96 1020.1
20200220062944 36 275 0.0 1.0 0.00 0.13 0.06 96 1020.0
20200220062445 36 294 0.0 2.0 0.00 0.13 0.06 96 1019.9
20200220061944 35 304 1.0 3.0 0.00 0.13 0.06 96 1019.9
20200220061444 35 314 0.0 3.0 0.00 0.13 0.06 96 1019.8
20200220060944 35 311 0.0 3.0 0.00 0.13 0.06 96 1019.7
20200220060444 35 307 0.0 2.0 0.00 0.13 0.06 96 1019.7
20200220055945 35 315 0.0 1.0 0.00 0.13 0.06 96 1019.6
20200220055444 35 320 0.0 1.0 0.00 0.13 0.06 96 1019.5
20200220054944 35 321 0.0 2.0 0.00 0.13 0.06 96 1019.5
20200220054445 35 314 0.0 2.0 0.00 0.13 0.06 96 1019.3
20200220053944 35 305 1.0 6.0 0.00 0.13 0.06 96 1019.2
20200220053445 35 306 1.0 6.0 0.00 0.13 0.06 96 1019.2
20200220052945 36 314 0.0 5.0 0.01 0.13 0.06 96 1019.2
20200220052444 36 316 0.0 4.0 0.01 0.13 0.06 96 1019.2
20200220051944 35 314 0.0 3.0 0.01 0.13 0.06 96 1019.2
20200220051445 35 296 0.0 3.0 0.01 0.13 0.06 96 1019.1
20200220050945 35 275 0.0 3.0 0.02 0.13 0.06 96 1019.0
20200220050444 35 305 0.0 2.0 0.02 0.13 0.06 96 1019.0
20200220045945 35 310 1.0 3.0 0.02 0.13 0.06 96 1019.0
20200220045445 35 309 1.0 3.0 0.02 0.13 0.06 96 1018.9
20200220044944 35 302 1.0 4.0 0.02 0.13 0.06 96 1018.8
20200220044445 35 303 1.0 4.0 0.03 0.13 0.06 96 1018.7
20200220043945 35 301 0.0 4.0 0.03 0.13 0.06 96 1018.6
20200220043445 35 307 0.0 3.0 0.02 0.12 0.05 96 1018.6
20200220042945 35 319 1.0 3.0 0.03 0.12 0.05 96 1018.6
20200220042445 35 309 1.0 4.0 0.03 0.12 0.05 96 1018.6
20200220041945 35 305 1.0 5.0 0.03 0.12 0.05 96 1018.6
20200220041445 35 308 1.0 6.0 0.03 0.12 0.05 96 1018.6
20200220040945 35 303 2.0 6.0 0.02 0.11 0.04 96 1018.5
20200220040445 35 297 1.0 6.0 0.02 0.11 0.04 96 1018.5
20200220035945 35 297 1.0 4.0 0.02 0.11 0.04 96 1018.5
20200220035445 35 308 1.0 4.0 0.02 0.10 0.03 96 1018.4
20200220034945 35 314 1.0 4.0 0.02 0.10 0.03 95 1018.4
20200220034444 34 315 0.0 3.0 0.01 0.09 0.02 95 1018.3
20200220033945 34 288 0.0 3.0 0.01 0.09 0.02 95 1018.2
20200220033445 34 255 0.0 3.0 0.01 0.09 0.02 95 1018.2
20200220032945 34 248 0.0 1.0 0.00 0.09 0.02 95 1018.2
20200220032454 34 249 0.0 1.0 0.00 0.09 0.02 95 1018.1
20200220031945 34 249 0.0 1.0 0.01 0.09 0.02 95 1018.0
20200220031445 34 1 0.0 1.0 0.01 0.09 0.02 95 1018.0
20200220030946 34 256 0.0 2.0 0.01 0.09 0.02 94 1017.9
20200220030445 34 249 0.0 2.0 0.01 0.09 0.02 94 1017.9
20200220025945 34 238 0.0 1.0 0.01 0.09 0.02 94 1017.9
20200220025445 34 240 0.0 1.0 0.01 0.09 0.02 94 1017.9
20200220024945 34 242 0.0 1.0 0.01 0.09 0.02 93 1017.9
20200220024445 34 241 0.0 1.0 0.01 0.09 0.02 93 1017.9
20200220023945 34 241 0.0 3.0 0.01 0.09 0.02 93 1017.9
20200220023445 35 244 1.0 3.0 0.01 0.09 0.02 93 1017.9
20200220022945 35 246 1.0 9.0 0.01 0.09 0.02 93 1017.9
20200220022445 36 248 1.0 9.0 0.01 0.09 0.02 93 1017.8
20200220021946 36 247 1.0 5.0 0.00 0.08 0.01 93 1017.8
20200220021445 36 245 0.0 4.0 0.00 0.08 0.01 93 1017.7
20200220020945 36 241 0.0 3.0 0.00 0.08 0.01 93 1017.8
20200220020445 36 241 0.0 3.0 0.00 0.08 0.01 93 1017.8
20200220015945 36 239 1.0 4.0 0.00 0.08 0.01 93 1017.8
20200220015446 36 240 1.0 4.0 0.00 0.08 0.01 93 1017.7
20200220014945 36 250 0.0 4.0 0.00 0.08 0.01 93 1017.7
20200220014445 36 250 0.0 4.0 0.00 0.08 0.01 93 1017.7
20200220013946 36 245 0.0 3.0 0.01 0.08 0.01 93 1017.7
20200220013446 36 239 0.0 1.0 0.01 0.08 0.01 93 1017.7
20200220012945 36 236 0.0 2.0 0.01 0.08 0.01 93 1017.6
20200220012445 36 236 0.0 2.0 0.01 0.08 0.01 93 1017.6
20200220011946 36 240 0.0 1.0 0.01 0.08 0.01 93 1017.6
20200220011445 36 270 0.0 2.0 0.01 0.08 0.01 93 1017.6
20200220010945 36 282 0.0 2.0 0.01 0.08 0.01 93 1017.6
20200220010446 36 316 0.0 2.0 0.01 0.08 0.01 93 1017.6
20200220005946 36 286 0.0 2.0 0.01 0.08 0.01 93 1017.6
20200220005445 36 246 0.0 2.0 0.01 0.08 0.01 93 1017.6
20200220004946 36 285 0.0 2.0 0.01 0.08 0.01 92 1017.6
20200220004445 37 295 0.0 3.0 0.00 0.07 0.00 92 1017.6
20200220003945 37 294 0.0 3.0 0.00 0.07 0.00 92 1017.6
20200220003446 37 286 0.0 4.0 0.00 0.07 0.00 92 1017.5
20200220002946 37 290 1.0 5.0 0.00 0.07 0.00 91 1017.5
20200220002445 37 283 1.0 7.0 0.00 0.07 0.00 92 1017.5
20200220001946 37 275 1.0 7.0 0.00 0.07 0.00 92 1017.4
20200220001446 37 259 0.0 2.0 0.00 0.07 0.00 92 1017.3
20200220000945 37 283 0.0 3.0 0.00 0.07 0.00 92 1017.2
20200220000446 37 275 0.0 3.0 0.00 0.07 0.00 92 1017.2
20200219235946 37 260 0.0 2.0 0.00 0.07 0.00 91 1017.2
20200219235445 37 284 0.0 1.0 0.00 0.07 0.00 91 1017.1
20200219234946 37 314 0.0 2.0 0.00 0.07 0.00 91 1017.1
20200219234446 37 268 0.0 3.0 0.00 0.07 0.00 91 1017.1
20200219233946 37 250 0.0 3.0 0.00 0.07 0.00 91 1017.1
20200219233445 37 297 0.0 4.0 0.00 0.07 0.00 91 1017.0
20200219232946 37 287 0.0 4.0 0.00 0.07 0.00 91 1017.0
20200219232446 37 272 0.0 3.0 0.00 0.07 0.00 91 1017.0
20200219231945 37 296 1.0 3.0 0.00 0.07 0.00 91 1017.0
20200219231446 37 303 1.0 6.0 0.00 0.07 0.00 92 1017.0
20200219230946 37 304 1.0 6.0 0.00 0.07 0.00 92 1016.9
20200219230446 37 297 1.0 5.0 0.00 0.07 0.00 92 1016.8
20200219225947 37 282 1.0 5.0 0.00 0.07 0.00 92 1016.8
20200219225446 37 289 1.0 4.0 0.00 0.07 0.07 92 1016.7
20200219224945 37 291 1.0 4.0 0.00 0.07 0.07 92 1016.7
20200219224446 38 295 1.0 7.0 0.00 0.07 0.07 92 1016.6
20200219223946 38 303 1.0 7.0 0.00 0.07 0.07 92 1016.6
20200219223446 38 311 1.0 5.0 0.00 0.07 0.07 92 1016.6
20200219222946 38 310 1.0 5.0 0.00 0.07 0.07 92 1016.5
20200219222446 38 260 1.0 4.0 0.00 0.07 0.07 92 1016.6
20200219221946 38 260 1.0 4.0 0.00 0.07 0.07 92 1016.5
20200219221446 38 303 1.0 4.0 0.00 0.07 0.07 92 1016.6
20200219220946 38 285 1.0 5.0 0.00 0.07 0.07 93 1016.5
20200219220446 38 276 1.0 6.0 0.00 0.07 0.07 93 1016.6
20200219215946 38 287 1.0 6.0 0.00 0.07 0.07 93 1016.6
20200219215447 38 292 1.0 8.0 0.00 0.07 0.07 93 1016.5
20200219214946 38 297 1.0 8.0 0.00 0.07 0.07 93 1016.5
20200219214446 38 298 1.0 6.0 0.00 0.07 0.07 93 1016.4
20200219213947 38 298 1.0 7.0 0.00 0.07 0.07 93 1016.4
20200219213446 38 295 1.0 7.0 0.00 0.07 0.07 93 1016.4
20200219212946 38 271 0.0 4.0 0.00 0.07 0.07 93 1016.3
20200219212446 38 292 1.0 4.0 0.00 0.07 0.07 93 1016.4
20200219211946 38 304 1.0 5.0 0.00 0.07 0.07 93 1016.4
20200219211446 38 303 1.0 5.0 0.00 0.07 0.07 93 1016.2
20200219210946 38 296 1.0 5.0 0.00 0.07 0.07 93 1016.1
20200219210446 38 293 1.0 5.0 0.00 0.07 0.07 93 1016.0
20200219205947 38 294 1.0 4.0 0.00 0.07 0.07 93 1016.0
20200219205446 38 299 1.0 6.0 0.00 0.07 0.07 93 1016.0
20200219204946 38 303 1.0 6.0 0.00 0.07 0.07 93 1015.9
20200219204446 38 295 1.0 4.0 0.00 0.07 0.07 93 1015.9
20200219203946 38 295 1.0 4.0 0.00 0.07 0.07 93 1015.8
20200219203446 38 301 1.0 7.0 0.00 0.07 0.07 93 1015.7
20200219202947 38 306 1.0 7.0 0.00 0.07 0.07 93 1015.7
20200219202446 38 309 1.0 5.0 0.00 0.07 0.07 93 1015.6
20200219201946 38 310 3.0 11.0 0.00 0.07 0.07 93 1015.6
20200219201447 38 308 4.0 11.0 0.00 0.07 0.07 93 1015.5
20200219200946 38 306 3.0 8.0 0.00 0.07 0.07 93 1015.4
20200219200446 38 307 2.0 8.0 0.00 0.07 0.07 94 1015.3
20200219195947 38 304 2.0 8.0 0.00 0.07 0.07 94 1015.3
20200219195446 38 304 1.0 7.0 0.00 0.07 0.07 94 1015.3
20200219194947 38 298 2.0 7.0 0.00 0.07 0.07 94 1015.2
20200219194447 38 295 2.0 5.0 0.01 0.07 0.07 94 1015.2
20200219193946 38 296 1.0 6.0 0.01 0.07 0.07 94 1015.0
20200219193446 38 296 1.0 6.0 0.01 0.07 0.07 94 1015.0
20200219192947 38 289 2.0 8.0 0.02 0.07 0.07 94 1015.0
20200219192446 38 283 2.0 8.0 0.03 0.07 0.07 93 1014.9
20200219191947 38 295 1.0 5.0 0.05 0.07 0.07 93 1014.8
20200219191447 38 306 1.0 5.0 0.05 0.07 0.07 93 1014.7
20200219190947 38 292 1.0 5.0 0.06 0.07 0.07 93 1014.6
20200219190447 38 284 1.0 5.0 0.06 0.07 0.07 93 1014.6
20200219185946 38 304 2.0 7.0 0.06 0.07 0.07 93 1014.5
20200219185447 38 305 3.0 7.0 0.06 0.07 0.07 93 1014.4
20200219184947 38 303 3.0 11.0 0.06 0.07 0.07 92 1014.4
20200219184446 38 299 4.0 11.0 0.05 0.06 0.06 92 1014.3
20200219183947 39 289 3.0 10.0 0.05 0.06 0.06 92 1014.3
20200219183447 40 303 3.0 10.0 0.05 0.06 0.06 92 1014.2
20200219182946 40 305 2.0 10.0 0.04 0.06 0.06 92 1014.1
20200219182447 40 289 1.0 6.0 0.02 0.04 0.04 92 1013.9
20200219181946 40 241 0.0 2.0 0.02 0.02 0.02 92 1013.7
20200219181446 40 240 1.0 4.0 0.02 0.02 0.02 92 1013.6
20200219180947 40 240 1.0 6.0 0.01 0.02 0.02 92 1013.5
20200219180447 40 239 2.0 6.0 0.01 0.02 0.02 92 1013.4
20200219175947 40 240 2.0 6.0 0.01 0.02 0.02 91 1013.3
20200219175446 40 236 3.0 9.0 0.01 0.02 0.02 91 1013.3
20200219174947 40 236 3.0 9.0 0.01 0.02 0.02 91 1013.2
20200219174447 40 240 3.0 9.0 0.01 0.02 0.02 91 1013.2
20200219173947 40 237 4.0 12.0 0.01 0.02 0.02 91 1013.2
20200219173447 40 236 4.0 12.0 0.01 0.02 0.02 91 1013.2
20200219172947 40 238 3.0 9.0 0.01 0.02 0.02 90 1013.2
20200219172447 40 238 3.0 8.0 0.01 0.02 0.02 90 1013.1
20200219171947 40 235 4.0 9.0 0.00 0.01 0.01 90 1013.1
20200219171447 40 237 5.0 12.0 0.01 0.01 0.01 90 1012.9
20200219170947 41 236 5.0 12.0 0.01 0.01 0.01 89 1012.9
20200219170447 41 233 3.0 10.0 0.01 0.01 0.01 89 1012.9
20200219165947 41 233 4.0 11.0 0.01 0.01 0.01 89 1012.9
20200219165447 41 235 5.0 14.0 0.01 0.01 0.01 89 1012.9
20200219164947 41 238 5.0 14.0 0.01 0.01 0.01 88 1012.8
20200219164447 41 238 5.0 13.0 0.01 0.01 0.01 88 1012.8
20200219163947 41 238 4.0 13.0 0.01 0.01 0.01 88 1012.7
20200219163448 41 236 4.0 9.0 0.01 0.01 0.01 88 1012.7
20200219162947 41 236 4.0 9.0 0.01 0.01 0.01 88 1012.6
20200219162447 41 236 4.0 11.0 0.01 0.01 0.01 87 1012.5
20200219161947 41 236 6.0 12.0 0.00 0.00 0.00 86 1012.5
20200219161447 42 233 6.0 14.0 0.00 0.00 0.00 86 1012.4
20200219160947 42 231 7.0 14.0 0.00 0.00 0.00 85 1012.3
20200219160447 42 234 7.0 14.0 0.00 0.00 0.00 84 1012.3
20200219155948 42 234 9.0 16.0 0.00 0.00 0.00 84 1012.3
20200219155447 42 233 8.0 16.0 0.00 0.00 0.00 83 1012.3
20200219154947 42 230 8.0 16.0 0.00 0.00 0.00 82 1012.2
20200219154448 43 233 8.0 16.0 0.00 0.00 0.00 80 1012.2
20200219153947 43 237 8.0 19.0 0.00 0.00 0.00 79 1012.2
20200219153448 43 237 8.0 19.0 0.00 0.00 0.00 78 1012.1
20200219152947 43 240 7.0 17.0 0.00 0.00 0.00 77 1012.2
20200219152448 44 241 5.0 17.0 0.00 0.00 0.00 76 1012.2
20200219151948 44 239 4.0 12.0 0.00 0.00 0.00 75 1012.1
20200219151447 44 236 4.0 10.0 0.00 0.00 0.00 75 1012.1
20200219150947 44 237 4.0 13.0 0.00 0.00 0.00 74 1012.1
20200219150448 44 243 5.0 13.0 0.00 0.00 0.00 73 1012.0
20200219145947 45 243 6.0 15.0 0.00 0.00 0.00 72 1012.1
20200219145448 45 240 7.0 17.0 0.00 0.00 0.00 70 1012.0
20200219144948 46 237 7.0 17.0 0.00 0.00 0.00 68 1012.0
20200219144447 46 238 8.0 16.0 0.00 0.00 0.00 66 1011.9
20200219143947 46 238 9.0 19.0 0.00 0.00 0.00 65 1011.9
20200219143448 46 235 9.0 19.0 0.00 0.00 0.00 65 1011.9
20200219142947 46 235 8.0 18.0 0.00 0.00 0.00 65 1011.9
20200219142447 46 238 8.0 15.0 0.00 0.00 0.00 65 1011.9
20200219141948 46 237 9.0 20.0 0.00 0.00 0.00 65 1011.8
20200219141448 47 239 10.0 20.0 0.00 0.00 0.00 64 1011.8
20200219140947 47 239 9.0 19.0 0.00 0.00 0.00 64 1011.8
20200219140448 47 235 9.0 18.0 0.00 0.00 0.00 64 1011.8
20200219135948 47 234 7.0 18.0 0.00 0.00 0.00 64 1011.8
20200219135447 47 236 7.0 16.0 0.00 0.00 0.00 64 1011.7
20200219134948 47 236 8.0 17.0 0.00 0.00 0.00 65 1011.8
20200219134448 47 235 10.0 18.0 0.00 0.00 0.00 64 1011.8
20200219133947 47 239 10.0 20.0 0.00 0.00 0.00 64 1011.8
20200219133448 47 236 11.0 24.0 0.00 0.00 0.00 63 1012.0
20200219132948 48 232 10.0 24.0 0.00 0.00 0.00 62 1011.9
20200219132448 48 234 8.0 15.0 0.00 0.00 0.00 61 1011.9
20200219131947 48 237 6.0 16.0 0.00 0.00 0.00 62 1011.8
20200219131448 48 239 5.0 16.0 0.00 0.00 0.00 61 1012.0
20200219130948 48 241 5.0 15.0 0.00 0.00 0.00 63 1012.0
20200219130448 47 244 4.0 15.0 0.00 0.00 0.00 63 1012.0
20200219125947 47 240 5.0 16.0 0.00 0.00 0.00 64 1012.1
20200219125457 47 240 6.0 16.0 0.00 0.00 0.00 63 1012.2
20200219124948 47 240 5.0 13.0 0.00 0.00 0.00 63 1012.2
20200219124451 47 239 4.0 13.0 0.00 0.00 0.00 64 1012.3
20200219123948 47 237 6.0 18.0 0.00 0.00 0.00 64 1012.4
20200219123448 47 236 8.0 18.0 0.00 0.00 0.00 63 1012.5
20200219122948 47 236 8.0 18.0 0.00 0.00 0.00 63 1012.5
20200219122448 47 238 8.0 18.0 0.00 0.00 0.00 63 1012.5
20200219121948 47 238 6.0 16.0 0.00 0.00 0.00 62 1012.6
20200219121448 47 235 7.0 16.0 0.00 0.00 0.00 62 1012.7
20200219120948 47 234 8.0 17.0 0.00 0.00 0.00 62 1012.6
20200219120448 47 236 6.0 17.0 0.00 0.00 0.00 62 1012.8
20200219115948 47 237 5.0 13.0 0.00 0.00 0.00 63 1012.8
20200219115448 47 230 8.0 17.0 0.00 0.00 0.00 62 1012.9
20200219114948 46 232 7.0 17.0 0.00 0.00 0.00 62 1012.9
20200219114448 47 239 6.0 14.0 0.00 0.00 0.00 62 1013.0
20200219113948 47 238 7.0 15.0 0.00 0.00 0.00 61 1013.1
20200219113448 47 235 8.0 16.0 0.00 0.00 0.00 62 1013.2
20200219112948 47 231 8.0 16.0 0.00 0.00 0.00 61 1013.2
20200219112448 47 235 7.0 14.0 0.00 0.00 0.00 61 1013.4
20200219111948 47 239 7.0 14.0 0.00 0.00 0.00 63 1013.5
20200219111448 46 238 7.0 15.0 0.00 0.00 0.00 63 1013.6
20200219110949 47 236 7.0 15.0 0.00 0.00 0.00 63 1013.7
20200219110448 47 234 6.0 15.0 0.00 0.00 0.00 63 1013.7
20200219105949 47 232 6.0 12.0 0.00 0.00 0.00 64 1013.7
20200219105448 47 234 7.0 15.0 0.00 0.00 0.00 63 1013.8
20200219104948 47 236 7.0 15.0 0.00 0.00 0.00 63 1013.9
20200219104448 47 236 7.0 14.0 0.00 0.00 0.00 63 1014.0
20200219103949 47 235 7.0 15.0 0.00 0.00 0.00 63 1014.0
20200219103448 46 234 7.0 15.0 0.00 0.00 0.00 64 1014.2
20200219102948 46 233 7.0 13.0 0.00 0.00 0.00 64 1014.3
20200219102449 46 233 7.0 14.0 0.00 0.00 0.00 66 1014.4
20200219101948 46 233 6.0 14.0 0.00 0.00 0.00 66 1014.5
20200219101448 45 233 6.0 14.0 0.00 0.00 0.00 67 1014.6
20200219100949 45 232 6.0 14.0 0.00 0.00 0.00 68 1014.7
20200219100449 45 232 5.0 14.0 0.00 0.00 0.00 68 1014.8
20200219095948 45 232 7.0 15.0 0.00 0.00 0.00 68 1014.8
20200219095449 45 231 8.0 15.0 0.00 0.00 0.00 67 1014.9
20200219094949 45 233 7.0 15.0 0.00 0.00 0.00 68 1015.0
20200219094449 45 232 7.0 15.0 0.00 0.00 0.00 67 1015.0
20200219093949 45 233 7.0 15.0 0.00 0.00 0.00 66 1015.1
20200219093448 46 234 8.0 17.0 0.00 0.00 0.00 66 1015.0
20200219092949 46 233 8.0 17.0 0.00 0.01 0.00 66 1015.2
20200219092449 46 235 6.0 14.0 0.00 0.01 0.00 66 1015.3
20200219091957 46 235 7.0 16.0 0.00 0.01 0.00 67 1015.3
20200219091449 45 235 7.0 16.0 0.00 0.01 0.00 66 1015.3
20200219090948 45 232 5.0 13.0 0.00 0.01 0.00 69 1015.4
20200219090448 45 230 5.0 11.0 0.00 0.01 0.00 70 1015.5
20200219085949 44 229 6.0 12.0 0.00 0.01 0.00 70 1015.6
20200219085449 44 232 6.0 16.0 0.00 0.01 0.00 70 1015.7
20200219084948 44 232 6.0 16.0 0.00 0.01 0.00 70 1015.8
20200219084449 43 232 5.0 14.0 0.00 0.01 0.00 72 1015.8
20200219083949 43 236 5.0 14.0 0.00 0.01 0.00 71 1015.9
20200219083449 43 233 5.0 14.0 0.00 0.01 0.00 71 1016.2